STARLINK-32705, 62479

Orbit data source: Space-Track

STARLINK-32705, 62479 is a payload satellite owned by SpaceX/Seattle (US) in LEO that was launched on Tue, 31 Dec 2024 UTC via an FALCON 9 launch vehicle from the Air Force Eastern Test Range (AFETR). Payload-class satellites include a variety of spacecraft equipped with specific instruments for various scientific and technological missions. These include communications satellites like Starlink; space stations such as the ISS; scientific satellites like the Hubble; Earth observation satellites from companies like Planet Labs, Umbra, and HawkEye 360; GPS; miniature CubeSats for education and research; and military/defense satellites.

Loading next visibility...
Identifier
62479, 2024-254T
Orbit
LEO
Last TLE update
13 hours ago
Origin
Manufacturer
SpaceX/Seattle
Mission
Operational Commercial Communications
Bus & Motor
STARLINK V2M, Unknown motor
Mass
730 kg wet, ~700 kg dry
Launch date (UTC)
2024-12-31 (7 months ago)
Launch vehicle
FALCON 9
Launch site
Air Force Eastern Test Range (AFETR)
Object type
Payload
Rocket body
Debris
Shape & HBR
Box + 2 Pan, 14.5 m
Radar Cross Section
33.884 m², Large (>1 m²)

Expand to show TLE details & history

TLE from 13 hours ago
0 STARLINK-32705
1 62479U 24254T   25199.43012576  .00011816  00000-0  43800-3 0  9994
2 62479  42.9957 251.7633 0000573 257.8598 102.2189 15.27595125 31753
Epoch: 2025-07-18T10:19Z
TLE epoch observation values (Epoch: 2025-07-18T10:19:22.865Z)
Latitude
-0.00005°
Longitude
160.43627°
Altitude
482.862 km
Speed
7.626 km/s
True Right ascension
16h 47m 03s
True Declination
0° 00' 00"
Sunlit
Object was in full shadow at epoch
Visualization orbit readout
Latitude
11.00087°
Longitude
169.43074°
Altitude
482.145 km
Speed
7.627 km/s
Apparent Right ascension
19h 54m 22s
Apparent Declination
-19° 12' 19"
Sunlit
Object is in full shadow
Visualization observer readout
Local Sidereal Time
11:44:22
Azimuth
84.742° E
Elevation
-36.889°
Doppler factor
1
Orbital elements
Apogee altitude
485.343 km
Perigee altitude
484.556 km
Semi-major axis
6,863.087 km
Eccentricity
0.00006
Inclination
42.9957°
RAAN
251.7633°
Arg. of periapsis
257.8598°
True anomaly
102.22532°
Mean anomaly
102.2189°
Eccentric anomaly
102.22211°
Mean motion
3.81737 °/min
Orbital period
94.31 mins
BSTAR
0.000438
Loading maneuver chart data...
Loading SW <> Apogee altitude chart data...
Loading historical data...
Loading historical data...
Loading historical data...
Loading historical data...
Loading historical data...
Loading historical data...
Loading historical data...
|